Skip to main content.
NOAA NWS Hourly Roundups by Site

NOAA NWS Hourly Roundups by Site

Regional Weather Roundup for Omaha, NE

To Select Another Site Choose from List

Select Site:  

000
ASUS43 KOAX 201510
RWRNE

WEATHER ROUNDUP FOR NEBRASKA
NATIONAL WEATHER SERVICE OMAHA NE
1000 AM CDT SUN OCT 20 2019

NOTES: SATELLITE DATA IS BEING USED TO AUGMENT CLOUD COVER ABOVE
       12000 FEET.
       "FAIR" INDICATES FEW OR NO CLOUDS BELOW 12,000 FEET WITH NO
       SIGNIFICANT WEATHER AND/OR OBSTRUCTIONS TO VISIBILITY.


NEZ001>004-019>022-054>056-201600-
NEBRASKA PANHANDLE

CITY           SKY/WX    TMP DP  RH WIND       PRES   REMARKS
SCOTTSBLUFF    FAIR      43  24  47 W14       29.58S
ALLIANCE       FAIR      43  23  45 W22G31    29.57R
CHADRON        PTSUNNY   46  29  51 NW7       29.54R
GORDON         FAIR      47  30  53 W17       29.52R
KIMBALL        FAIR      40  17  38 W29G39    29.61F WCI  29
SIDNEY         FAIR      42  17  36 W14       29.62F
$$

NEZ057>060-069>072-079>082-201600-
SOUTHWEST NEBRASKA

CITY           SKY/WX    TMP DP  RH WIND       PRES   REMARKS
NORTH PLATTE   FAIR      51  33  50 W12       29.60R
IMPERIAL       FAIR      49  26  41 W12       29.64R
LEXINGTON      FAIR      54  38  54 S16       29.62R
MCCOOK         FAIR      52  30  43 W10       29.62R
OGALLALA       FAIR      51  22  31 W18G30    29.61S
$$

NEZ005>010-023>029-035>040-094-201600-
NORTH CENTRAL NEBRASKA

CITY           SKY/WX    TMP DP  RH WIND       PRES   REMARKS
VALENTINE      PTSUNNY   51  34  52 SE10      29.50F
AINSWORTH      FAIR      51  35  53 S21       29.53F
BROKEN BOW     FAIR      54  37  52 S15G25    29.59S
O`NEILL        DRIZZLE   54  38  55 SE13G22   29.63R
ORD            FAIR      53  39  59 SE10      29.61R
THEDFORD       PTSUNNY   51  35  53 SW15G24   29.56R
$$

NEZ041-046>049-061>064-073>077-083>087-201600-
SOUTH CENTRAL NEBRASKA

CITY           SKY/WX    TMP DP  RH WIND       PRES   REMARKS
GRAND ISLAND   FAIR      54  41  61 S17G26    29.64S
AURORA         PTSUNNY   55  45  70 SE20G28   29.66F
HASTINGS       FAIR      53  41  63 S16G29    29.65S
HEBRON         FAIR      58  49  73 S21G30    29.69S
HOLDREGE       FAIR      54  41  61 S18G24    29.62F
KEARNEY        FAIR      55  38  52 S18       29.63R
YORK           FAIR      54  46  76 S13       29.69R
$$

NEZ011>018-030>034-042>045-201600-
NORTHEAST NEBRASKA

CITY           SKY/WX    TMP DP  RH WIND       PRES   REMARKS
NORFOLK        FAIR      54  41  61 S15G22    29.69R
ALBION         LGT RAIN  51  42  72 SE5       29.67S
BLAIR          FAIR      54  48  81 S12       29.78S
COLUMBUS       PTSUNNY   54  44  69 SE14      29.69R
FREMONT        FAIR      55  50  82 SE13      29.76S
TEKAMAH        FAIR      50  46  86 SE10      29.77S
WAYNE          FAIR      51  43  72 SE16      29.72S
$$

NEZ050>053-065>068-078-088>093-201600-
SOUTHEAST NEBRASKA

CITY           SKY/WX    TMP DP  RH WIND       PRES   REMARKS
LINCOLN        FAIR      56  48  74 SE17G29   29.73F
OMAHA EPPLEY   PTSUNNY   52  49  89 SE10      29.80R
BEATRICE       FAIR      59  51  74 SE15G22   29.72F
FALLS CITY     FAIR      50  48  93 E5        29.81S FOG
NEBRASKA CITY  FAIR      53  53 100 SE9       29.80F
PLATTSMOUTH    FAIR      52  51  99 SE10G20   29.80R
$$

NEZ044-045-051>053-067-201600-
OMAHA AREA

CITY           SKY/WX    TMP DP  RH WIND       PRES   REMARKS
OMAHA EPPLEY   PTSUNNY   52  49  89 SE10      29.80R
BLAIR          FAIR      54  48  81 S12       29.78S
FREMONT        FAIR      55  50  82 SE13      29.76S
MILLARD        FAIR      54  50  87 SE6       29.79S
OFFUTT AFB     PTSUNNY   54  50  87 SE10      29.83R
PLATTSMOUTH    FAIR      52  51  99 SE10G20   29.80R
WAHOO          FAIR      54  51  89 SE13      29.75F
$$


 

View Past Reports for Omaha, NE.

Products Courtesy of NOAA-NWS
NWS Information Parsing Script by Ken True at Saratoga Weather - Script by SE Lincoln Weather.